Location: Rounton
(54.4000°N, 1.3500°W)
Time: 23:36:10
(UTC+01:00)

Vanguard 1 - Pass Details

Date: 27 February 2024
Orbit: 653 x 3825 km, 34.2° (Epoch: 21 April)

Event Time Altitude Azimuth Distance (km) Brightness Sun altitude
Rises 20:01:51 0° 230° (SW) 5,405 14.3 -21.7°
Reaches altitude 10° 20:05:17 10° 222° (SW) 4,793 13.8 -22.1°
Maximum altitude 20:18:02 36° 162° (SSE) 4,210 12.9 -23.9°
Enters shadow 20:25:16 29° 130° (SE) 5,020 13.1 -24.9°
Drops below altitude 10° 20:36:29 10° 107° (ESE) 6,879 - -26.4°
Sets 20:42:44 0° 101° (E) 7,969 - -27.2°
